Theta_e
329 330 330 329 329 328 328 328 328 327 326 327 328 328 329 329 329 329 327 325 325 325 324 324 325 327 329 329 329 329 327 327 328 327 328 328 327 326 326 325 322 318 316 315 312 309 309 308 308 306 304 300 298 296 295 295 295 294 294 294 294 293 292 291 290 290 290 290 290 290 290 290 290 289
326 328 329 329 329 328 329 329 328 327 327 327 328 329 328 329 329 329 329 327 326 325 325 325 325 327 329 329 329 329 326 326 326 324 325 327 325 325 324 323 320 316 314 313 310 309 308 307 306 305 302 298 296 295 295 295 295 294 294 294 293 293 292 290 289 290 290 290 290 290 290 290 289 289
324 326 327 328 329 328 328 329 328 328 328 328 328 329 329 329 329 329 330 329 328 325 325 326 326 326 328 327 328 327 324 325 323 320 323 325 324 323 322 320 317 314 312 311 309 308 307 306 305 302 299 296 295 295 295 295 294 294 294 293 293 292 291 289 289 290 290 290 290 290 290 289 289 289
323 324 326 327 328 329 328 328 328 329 329 329 328 328 329 330 329 329 329 330 329 326 325 326 325 325 326 326 326 324 322 324 321 318 321 324 322 321 318 316 314 312 310 308 307 306 305 304 302 299 296 295 295 295 295 295 294 294 293 293 292 291 290 289 290 290 290 290 290 289 289 289 289 289
322 322 323 325 327 328 327 328 329 329 330 329 328 328 329 330 331 330 329 329 329 328 326 327 325 325 325 324 324 322 320 320 316 314 319 321 319 318 315 312 311 309 308 307 306 304 303 301 298 296 296 295 295 295 294 294 294 294 293 292 291 290 289 289 290 290 290 289 289 289 289 289 289 289
321 321 322 322 324 326 326 328 329 329 329 330 329 329 329 329 329 329 329 329 329 328 327 327 326 324 324 323 322 320 318 315 310 309 315 317 314 314 313 311 309 307 306 304 302 301 299 298 296 296 296 295 295 295 294 294 293 293 292 292 291 289 289 290 290 290 289 289 289 289 289 289 289 289
320 321 321 321 322 324 325 327 328 329 328 329 329 329 329 329 327 327 329 330 329 328 327 326 325 324 323 322 320 317 315 311 307 307 311 310 308 307 308 307 305 303 301 300 299 298 297 296 296 295 295 295 295 294 294 293 293 292 292 291 290 289 289 289 290 289 289 289 289 289 289 289 289 289
318 320 321 321 321 322 323 325 327 328 329 329 329 329 330 330 327 327 328 329 329 329 328 326 324 323 322 320 318 315 312 309 307 306 306 304 303 303 302 302 300 298 297 298 297 297 297 296 296 295 295 294 294 294 293 293 292 292 291 291 290 289 289 289 289 289 289 289 289 289 289 289 289 289
316 318 320 321 321 321 322 323 324 327 329 328 329 329 329 331 330 329 329 329 329 328 329 327 324 323 322 319 316 313 310 308 306 305 304 302 302 301 300 299 298 297 296 296 296 296 296 296 295 295 294 294 294 294 293 292 292 291 291 290 290 289 289 289 289 289 289 289 289 289 289 288 288 288
313 315 317 319 321 321 322 322 322 324 326 327 329 330 329 329 329 330 330 329 328 328 329 327 324 323 322 318 314 312 308 307 305 304 303 302 301 300 299 298 297 295 295 295 295 295 295 294 294 294 294 293 293 293 293 292 292 291 291 290 290 289 289 289 289 289 289 289 289 289 288 288 288 288
312 314 315 317 319 320 321 322 322 323 324 326 329 330 329 327 328 330 331 329 329 328 328 327 325 324 321 316 313 311 309 307 306 304 303 301 300 299 299 298 296 294 294 294 294 294 294 294 293 293 293 293 293 292 292 292 292 291 290 290 289 289 289 289 289 289 289 289 289 289 288 288 288 288
311 312 314 316 317 319 320 321 322 322 323 325 327 330 330 329 329 330 330 330 329 328 327 327 325 322 318 314 312 311 309 308 306 305 304 302 300 300 299 298 296 294 294 294 293 293 293 293 292 292 292 292 292 292 292 291 291 291 290 289 289 288 288 289 289 289 288 288 288 288 288 288 288 288
309 311 313 315 316 317 318 320 321 322 322 323 325 328 331 332 330 330 330 331 329 328 328 327 324 320 317 314 312 311 309 308 306 305 304 303 302 300 299 297 296 294 294 293 292 292 292 292 292 291 291 291 291 291 291 291 291 290 290 289 288 288 288 288 288 288 288 288 288 288 288 288 288 288
308 309 311 313 315 316 317 318 319 320 321 322 323 325 329 331 331 330 330 331 330 328 327 326 323 320 317 315 313 311 310 309 307 305 305 304 303 301 299 298 296 295 294 294 293 293 292 292 292 292 291 292 292 291 291 291 291 291 290 289 289 288 288 288 288 288 288 288 288 288 288 288 288 288
307 308 310 312 314 315 316 318 318 318 319 320 321 322 325 329 330 329 329 330 330 329 327 326 323 320 318 316 313 311 310 309 307 306 306 305 303 301 300 299 298 296 295 295 294 294 292 292 292 292 292 292 292 292 292 292 293 292 291 291 289 288 288 288 288 288 288 288 288 288 288 288 288 288
307 308 309 310 313 315 316 317 318 318 318 319 320 320 322 326 328 328 329 331 330 328 327 327 324 321 319 317 313 311 309 308 307 308 308 305 304 303 302 302 300 298 296 296 296 295 294 293 293 293 293 293 293 294 293 293 294 293 292 292 289 288 288 289 288 288 288 288 288 288 288 288 288 288
306 307 308 310 312 314 316 317 318 319 319 319 320 319 321 324 327 327 329 331 329 327 328 327 325 323 320 317 313 312 311 309 308 308 308 306 305 304 305 305 303 299 297 297 298 297 295 294 294 295 295 295 295 295 294 294 294 293 293 292 289 288 288 288 288 288 288 288 288 288 288 288 288 288
303 305 307 310 311 313 316 317 318 319 320 321 322 321 320 323 326 326 327 329 328 328 328 328 326 323 321 318 315 314 313 311 310 309 309 308 306 306 307 306 303 299 297 298 299 298 296 294 295 296 297 297 296 295 295 295 294 293 293 291 289 288 288 288 288 288 288 288 288 288 288 288 287 288
301 303 305 308 310 313 315 317 318 319 320 321 323 323 321 321 325 326 326 328 328 327 328 327 325 323 321 319 318 316 314 313 311 311 310 309 307 307 306 304 300 298 298 298 299 299 297 295 295 296 297 297 297 295 295 294 293 293 291 289 288 288 288 288 288 288 288 288 288 288 288 288 287 287
300 301 303 305 308 311 314 316 318 319 320 321 321 324 324 324 325 326 326 327 328 327 327 327 325 323 321 320 320 317 314 313 312 311 310 308 307 305 303 301 299 298 298 298 300 301 299 296 296 297 297 297 297 295 295 294 293 292 290 288 288 288 288 288 288 288 288 288 288 288 287 288 287 287
299 300 301 303 305 309 312 314 317 318 319 321 321 322 325 326 326 326 326 326 327 327 327 326 325 324 322 321 320 317 314 314 313 311 308 306 305 304 302 300 299 299 298 298 300 302 299 296 297 298 298 297 296 295 295 294 293 291 289 288 288 288 288 288 288 288 288 288 288 288 288 287 287 287
299 300 300 301 303 307 310 313 316 318 319 320 321 321 323 325 324 323 323 323 324 325 324 324 324 324 323 322 320 317 316 315 315 313 309 306 305 304 303 301 300 299 298 298 300 301 299 296 297 298 297 297 296 295 294 294 293 291 289 288 288 288 289 289 288 288 288 289 289 289 289 288 287 287
299 300 301 301 302 304 307 311 314 316 318 319 321 321 323 323 321 320 320 321 321 321 321 322 322 322 320 319 318 316 315 314 313 313 312 308 306 305 303 302 301 299 298 299 300 300 299 297 297 298 297 296 296 296 295 294 293 292 290 289 290 290 291 291 290 290 290 291 291 291 291 290 289 289
300 300 301 302 302 303 305 307 311 314 316 318 320 321 323 323 319 317 318 319 319 320 320 319 318 317 316 316 315 313 312 311 310 310 311 309 307 306 304 302 301 300 299 299 300 300 299 297 296 297 297 297 296 296 296 295 294 293 293 292 292 293 292 292 292 292 292 292 292 292 291 291 290 290
300 301 301 303 303 304 305 306 307 310 313 315 317 320 323 322 319 317 316 317 318 318 317 315 313 313 312 311 311 310 309 309 309 309 309 308 307 306 304 302 301 299 298 299 300 299 298 297 296 297 297 298 298 297 296 295 295 294 294 294 294 294 293 293 293 293 293 293 293 292 292 291 290 290
300 301 302 303 304 305 306 307 307 309 310 312 315 319 322 321 318 317 316 315 314 314 313 311 309 309 308 307 307 306 306 307 307 307 307 306 306 305 304 303 302 299 297 298 299 299 298 298 297 297 297 298 298 298 297 296 296 295 294 294 294 294 294 293 293 293 294 294 293 293 292 291 291 291
300 302 303 304 305 307 307 308 309 309 310 311 314 318 321 320 317 316 314 312 312 310 309 307 306 305 304 304 304 304 304 304 304 304 304 304 304 303 302 302 301 300 299 298 298 298 298 297 296 297 297 297 298 298 297 297 296 295 295 295 294 294 294 294 293 293 293 293 293 293 292 292 292 292
300 302 304 304 306 308 310 310 311 311 311 313 316 319 320 318 315 313 311 310 309 307 305 304 303 301 301 301 301 301 301 301 302 302 301 301 300 300 300 300 299 299 298 297 296 297 297 297 297 297 297 297 297 297 297 297 296 296 295 295 294 294 294 294 293 293 293 293 293 293 292 293 293 293
300 302 304 306 308 310 312 313 314 314 314 315 317 318 318 315 313 311 309 307 306 305 303 301 301 300 299 299 299 299 299 299 299 298 298 297 296 296 297 297 296 296 295 295 295 296 296 296 296 296 296 296 296 297 297 296 296 295 294 293 294 294 293 293 293 293 293 293 293 292 292 293 293 293
299 300 303 307 310 312 313 315 316 315 315 315 317 317 315 312 310 309 307 305 304 302 301 300 299 298 298 297 296 296 297 296 296 295 295 294 294 294 293 293 292 292 292 293 294 294 295 295 295 295 295 295 295 295 295 295 295 295 294 293 294 294 293 293 293 293 293 293 292 292 292 293 293 293
299 300 303 307 311 312 312 313 313 313 312 313 314 313 311 309 309 309 307 306 304 302 299 298 297 296 296 295 294 295 295 294 294 294 294 293 292 292 291 290 290 290 291 291 292 293 293 293 294 294 293 293 294 294 294 294 294 295 294 294 294 293 293 293 293 293 293 292 292 292 293 293 293 293
300 302 304 306 308 308 308 307 307 307 307 309 309 307 306 306 307 306 305 304 303 300 298 297 295 294 294 293 293 293 293 293 292 293 293 291 290 290 290 289 289 289 289 290 290 291 292 292 293 294 294 294 294 293 293 293 294 294 294 294 293 293 293 293 293 293 292 292 292 293 293 292 292 292
301 302 303 302 303 303 303 302 301 302 302 303 303 303 304 304 303 302 302 300 299 297 296 295 293 293 292 292 292 292 291 291 291 292 291 290 289 289 289 289 289 289 289 289 289 290 290 291 292 292 293 293 294 293 293 293 293 294 294 293 293 293 293 293 293 292 291 291 292 292 292 292 292 292
301 300 300 300 300 300 300 299 299 299 299 300 300 300 301 301 300 300 299 297 296 295 295 293 292 292 291 291 291 291 290 290 291 291 290 290 289 289 290 290 290 290 290 290 290 289 289 289 289 290 290 291 292 292 293 294 294 294 293 293 293 293 293 292 292 291 291 292 292 292 292 292 292 291
300 299 298 298 298 298 298 298 297 297 298 298 297 298 298 298 298 297 296 295 294 293 293 292 292 291 291 291 291 290 290 290 290 290 290 290 290 290 290 290 290 290 290 290 290 290 290 290 290 291 291 291 290 289 290 292 293 293 292 292 292 292 292 292 291 291 291 292 292 292 292 292 291 291
298 298 297 297 296 297 297 297 297 297 296 296 296 296 296 295 294 294 294 293 292 292 292 291 291 291 291 291 290 290 290 290 290 290 291 291 291 290 290 290 290 290 290 291 291 291 292 292 292 292 293 293 292 291 289 288 288 289 290 291 291 291 291 290 290 290 291 291 291 291 291 291 291 290
297 297 297 296 296 296 297 296 296 296 296 296 295 295 294 293 293 293 292 292 291 291 291 291 290 290 290 290 290 290 290 290 290 290 290 290 290 291 290 290 290 290 291 291 291 291 292 292 292 293 293 293 294 293 290 287 287 288 288 289 290 290 289 289 290 290 291 291 291 291 291 290 290 290
296 297 296 296 296 296 295 295 295 295 295 295 294 294 293 292 292 291 291 291 291 291 291 290 290 290 290 289 289 290 290 290 290 290 290 290 290 290 290 290 290 290 291 291 291 291 291 292 292 292 293 294 294 294 291 289 289 288 287 287 287 288 288 289 290 290 290 290 290 290 290 290 290 290
295 296 295 295 295 295 294 294 294 295 294 293 293 292 292 291 291 290 290 290 290 290 290 289 289 289 289 289 289 290 289 289 289 289 290 290 290 290 290 290 290 290 290 290 291 291 291 291 292 292 292 292 292 292 291 291 290 288 287 286 287 287 287 288 288 289 289 290 290 289 289 289 289 289
294 294 294 294 294 294 294 294 293 293 293 292 292 291 291 290 290 290 290 290 289 289 289 289 289 289 289 289 289 289 289 289 289 289 289 289 289 289 289 290 290 290 290 290 290 290 290 290 290 290 289 289 289 289 290 290 289 288 288 288 287 287 286 286 287 288 288 288 288 289 289 289 289 288
292 292 293 293 293 293 292 292 292 291 291 291 290 290 290 290 289 289 289 289 289 288 288 288 288 289 289 289 289 289 289 289 289 289 289 289 289 289 289 290 290 290 290 290 290 289 287 287 287 287 287 287 288 290 290 291 291 290 289 288 288 287 286 286 286 287 287 287 288 288 289 288 288 288
290 291 291 291 291 291 291 291 290 290 290 290 289 289 289 289 288 288 288 288 288 288 288 288 288 289 289 289 289 289 289 289 289 289 288 288 288 289 289 290 290 290 290 290 288 286 284 284 286 287 287 288 290 291 291 291 291 290 289 289 289 288 288 287 287 287 287 287 288 288 288 288 288 288
289 289 290 290 290 290 290 289 289 289 289 289 288 288 288 288 288 288 288 288 288 288 288 288 288 288 288 289 289 289 288 288 288 288 288 288 288 289 289 289 289 289 289 288 287 286 286 287 288 289 289 289 289 290 290 289 290 290 290 290 289 288 288 289 288 288 288 288 287 287 288 287 287 287
288 288 288 289 289 288 288 288 288 288 288 288 288 288 288 288 288 288 288 288 288 288 288 288 288 288 288 288 288 288 287 287 287 287 288 288 288 288 288 288 288 288 288 288 288 288 288 289 289 289 289 288 289 289 288 289 290 290 289 289 288 289 289 289 289 289 289 289 288 288 288 287 287 287
288 288 288 288 288 288 288 287 287 287 287 287 287 287 287 288 288 288 288 287 288 288 288 288 288 288 287 287 287 287 287 287 287 287 288 287 288 288 288 288 288 288 288 289 289 289 288 289 289 289 288 288 288 288 288 288 289 289 289 289 289 289 290 289 289 289 290 290 289 288 288 288 287 287
Wind_Speed
24 27 32 34 35 34 33 37 38 38 37 34 31 27 24 18 9 8 10 9 10 17 22 21 20 17 16 18 17 15 15 18 20 22 26 29 32 33 32 30 28 27 25 22 20 19 20 19 18 17 15 13 12 11 10 10 9 8 8 7 6 6 6 7 7 6 6 6 6 7 7 8 9 10
24 26 31 33 34 34 33 34 36 38 38 36 33 30 30 26 17 11 10 11 13 17 21 22 22 21 20 19 18 16 15 17 18 21 28 32 33 33 31 29 28 27 25 22 20 20 20 20 19 18 16 13 12 11 10 10 9 8 9 8 7 6 6 7 6 6 5 6 6 7 8 8 9 10
24 25 29 31 32 34 37 37 36 37 40 39 36 32 30 29 28 24 15 9 15 19 18 24 25 25 25 22 20 18 17 18 17 21 29 33 32 32 30 27 27 27 25 23 21 22 21 21 20 18 16 13 12 11 10 10 9 9 9 8 7 7 6 6 5 5 5 5 6 7 8 8 9 10
25 25 26 29 31 33 36 37 35 34 35 39 40 36 32 29 29 30 21 10 13 22 17 22 24 25 28 25 22 21 19 20 19 22 31 33 32 32 29 27 27 26 25 23 22 23 22 21 20 18 15 13 12 11 10 10 9 9 9 8 7 7 6 5 4 5 5 6 6 7 8 8 9 10
26 27 27 28 30 32 33 34 33 31 31 35 38 37 36 35 30 29 27 17 13 22 18 18 21 23 28 26 23 21 21 23 21 21 29 33 32 32 30 28 28 26 25 23 23 23 22 21 19 17 15 13 12 11 10 9 9 9 9 8 7 7 6 5 4 5 5 6 7 7 8 9 9 10
27 27 28 28 28 30 31 32 32 32 32 30 31 32 33 36 35 30 29 24 15 19 17 13 17 19 24 24 23 23 24 27 23 23 29 30 29 30 30 30 28 26 25 24 23 22 21 20 19 17 15 13 12 11 10 10 10 10 10 9 7 6 5 5 4 5 6 7 7 8 9 9 10 10
27 28 29 29 29 29 29 31 32 33 35 32 30 30 30 35 41 36 31 28 20 18 16 13 20 20 21 22 24 25 26 27 24 24 28 27 27 28 30 31 29 26 25 24 23 22 21 19 18 16 15 13 12 11 10 10 11 11 10 9 8 6 5 5 5 6 6 7 8 8 9 9 10 10
27 28 29 29 29 30 30 32 32 31 35 35 32 32 31 33 41 42 37 33 27 21 16 15 23 23 22 23 26 27 26 26 24 24 25 24 24 27 28 29 29 26 24 23 22 21 20 19 17 16 15 14 13 11 11 11 11 11 11 9 8 6 5 5 5 6 7 8 8 8 9 9 10 11
28 28 29 30 30 30 30 31 32 31 32 33 32 34 35 33 36 40 39 35 31 27 20 16 22 24 23 22 25 28 28 26 24 22 22 21 22 24 24 26 28 26 23 22 21 20 19 18 17 17 16 15 13 12 12 12 12 11 11 10 8 7 6 5 6 7 8 8 8 9 9 10 10 11
29 29 29 31 31 31 31 31 32 32 32 33 32 34 40 40 36 37 37 34 32 29 22 19 22 24 24 23 23 26 28 30 28 24 22 19 20 24 24 25 27 26 24 23 22 21 20 19 18 17 16 15 14 13 13 12 12 12 11 10 9 7 6 6 7 8 9 9 9 9 9 10 11 12
30 31 31 31 32 33 34 33 32 32 32 32 32 33 37 40 36 33 33 34 35 31 24 22 23 23 25 25 24 24 26 27 27 28 26 21 20 24 26 27 28 27 25 24 22 21 20 19 19 18 17 16 15 14 13 13 12 12 11 10 9 8 7 7 8 8 9 9 9 9 10 11 12 13
30 32 32 33 34 35 36 35 33 32 32 31 31 32 33 33 33 30 30 33 35 32 28 25 24 24 24 23 23 25 25 23 23 27 29 27 24 23 24 27 29 29 27 26 24 23 22 21 20 19 18 17 16 14 14 13 13 13 12 11 10 8 7 7 8 9 10 10 9 9 10 11 13 14
31 32 32 33 35 38 39 39 37 36 35 33 31 30 29 31 34 31 28 29 32 33 30 25 24 24 23 23 25 26 26 26 27 29 29 27 24 23 21 22 27 30 29 27 25 25 25 24 23 21 20 19 17 16 16 15 15 15 14 12 10 8 8 8 9 10 10 10 9 9 10 12 13 14
32 32 32 33 36 39 41 43 43 42 40 39 37 32 29 31 36 35 29 27 31 32 26 23 24 24 23 25 28 28 29 30 31 31 29 25 23 23 20 17 21 27 29 28 26 25 26 26 24 23 21 19 18 18 18 17 16 15 13 10 9 8 8 9 9 10 10 10 10 9 10 12 13 14
31 32 32 33 34 37 40 43 45 46 45 45 43 39 35 33 36 39 34 31 32 29 23 24 26 24 23 26 28 30 32 32 32 33 30 27 26 25 21 17 19 26 30 29 24 23 26 26 24 22 21 20 19 18 17 17 15 14 12 10 9 9 9 9 10 10 10 10 9 9 10 12 13 14
31 31 31 32 32 34 37 39 41 43 46 48 48 45 41 37 38 39 36 34 35 31 24 24 25 24 26 26 26 31 35 33 33 32 28 27 28 25 23 20 20 27 32 27 21 20 24 24 21 19 19 20 20 18 18 19 18 16 14 12 11 10 10 10 10 10 10 10 9 9 10 11 12 13
32 31 31 31 31 32 34 36 37 38 40 44 48 48 44 40 39 41 39 36 38 38 33 30 29 27 28 28 31 39 42 37 34 31 26 26 27 24 23 21 20 28 33 27 19 18 21 24 21 17 17 19 21 21 21 21 20 18 17 15 13 12 11 10 10 10 10 9 8 9 10 11 12 13
34 33 32 31 31 32 32 33 35 36 36 36 40 45 47 45 41 42 43 40 39 40 37 33 32 31 31 33 38 43 44 41 38 36 32 30 27 23 21 18 20 29 32 26 19 15 19 25 22 17 17 17 18 20 20 20 20 19 18 17 15 12 11 10 10 10 8 8 8 9 10 11 12 12
37 36 35 34 33 32 32 33 34 35 35 33 33 36 42 46 43 41 44 44 42 40 35 31 32 33 34 37 40 43 44 41 39 37 36 33 30 25 21 18 21 27 28 25 20 14 16 24 21 17 17 16 15 18 18 17 19 19 18 17 14 11 10 10 9 8 7 8 8 9 10 11 11 13
37 37 37 36 35 34 33 34 35 35 35 35 33 30 32 38 41 40 41 44 44 43 40 37 36 34 33 36 39 43 44 40 36 33 30 31 32 28 22 18 19 24 26 27 22 14 15 22 20 16 18 17 15 16 17 16 17 17 16 14 12 11 10 9 8 7 7 7 8 8 9 11 12 14
37 38 38 37 36 35 35 36 36 35 36 36 36 32 28 29 33 34 35 38 39 39 38 38 39 38 36 36 39 42 44 43 40 36 32 33 35 30 20 13 17 22 26 28 23 14 16 22 20 16 17 17 15 15 17 16 14 13 13 12 11 11 10 8 7 7 7 6 7 8 9 11 13 14
37 38 39 39 39 38 36 36 36 36 36 35 36 34 28 24 26 29 30 31 31 31 28 29 33 36 37 38 40 42 44 44 44 41 38 38 36 29 19 15 17 17 21 28 26 15 15 22 21 16 15 14 14 14 15 14 12 10 11 11 11 10 9 8 7 7 7 7 8 8 9 12 14 14
36 37 38 40 43 44 41 38 37 36 35 33 35 34 27 20 23 28 30 30 29 28 26 26 28 30 33 36 39 41 42 42 41 40 39 40 37 28 20 20 19 12 15 30 31 18 16 23 22 17 14 11 12 14 14 13 12 9 9 11 11 10 8 7 7 6 7 7 8 10 9 11 14 13
35 36 36 37 41 46 47 44 43 40 35 30 32 34 29 21 21 26 31 31 31 31 29 29 29 29 32 35 38 40 40 39 38 35 35 37 36 29 25 25 20 11 14 33 36 21 17 23 21 18 15 9 9 14 14 12 11 10 10 12 12 11 8 6 6 7 7 7 9 9 8 11 14 12
34 34 34 34 36 40 44 46 47 48 43 35 33 36 32 25 24 28 32 31 32 32 31 30 29 30 31 33 35 38 37 37 36 33 32 33 30 27 27 27 20 12 15 33 37 22 15 20 20 19 17 10 9 14 14 11 12 12 11 11 11 10 8 7 8 8 8 8 9 8 7 12 15 11
34 33 32 32 33 35 39 41 44 50 50 43 38 36 31 27 27 31 35 33 32 32 31 31 30 30 31 32 33 34 33 34 33 30 29 30 26 24 25 25 23 20 21 30 35 22 13 18 20 18 16 11 8 13 13 11 12 12 11 10 9 8 7 6 6 6 6 7 8 8 10 14 14 10
33 32 30 31 32 34 37 39 40 45 48 45 40 34 29 30 31 34 36 36 35 33 31 31 30 29 31 31 31 31 30 29 29 27 28 28 24 22 21 20 21 22 22 29 33 22 12 16 19 17 15 12 9 10 11 10 11 11 11 10 8 7 6 5 4 4 5 5 6 8 11 13 11 10
32 30 29 31 34 35 37 38 39 41 43 41 37 32 30 32 33 36 37 37 36 34 31 29 27 26 28 29 29 30 30 30 30 29 28 25 21 21 21 18 17 17 21 28 28 18 13 17 17 13 12 12 10 9 8 9 11 11 9 7 6 6 5 3 3 4 4 5 6 8 9 10 9 9
35 34 32 32 33 34 33 32 33 36 40 39 34 31 33 35 36 38 38 38 38 35 29 27 26 26 26 28 29 31 33 35 34 33 30 27 25 24 22 19 18 20 24 25 20 13 13 16 14 11 10 9 9 8 7 7 9 8 6 5 4 3 3 3 3 4 4 5 6 7 9 9 9 9
39 39 38 34 29 28 28 29 31 34 37 36 33 32 34 36 37 38 40 39 38 34 29 28 28 28 29 30 32 34 36 37 36 36 35 33 29 28 28 27 24 22 22 18 14 13 14 15 13 11 10 7 6 6 6 6 7 7 6 4 3 2 2 2 3 3 4 5 7 8 9 9 9 10
40 40 39 35 28 25 26 27 30 33 34 35 35 34 33 35 37 41 42 41 39 36 32 30 30 31 33 35 35 35 36 36 35 35 35 33 30 28 30 29 25 21 18 16 15 15 16 16 14 11 10 9 7 7 5 5 6 6 6 5 2 1 1 1 3 3 4 6 8 8 8 8 9 10
36 34 31 27 24 24 23 22 25 28 30 33 34 32 30 33 36 37 37 37 38 38 36 34 33 33 35 35 34 33 33 34 35 33 31 30 30 29 28 26 22 19 18 18 17 17 16 15 14 12 11 11 9 7 6 5 5 5 5 4 2 1 1 1 3 4 5 7 8 7 8 8 9 9
28 26 23 22 22 21 21 21 22 24 26 28 27 25 27 31 32 33 33 34 35 37 39 38 37 37 35 33 31 31 32 33 33 31 29 29 29 26 24 21 20 19 19 18 17 17 17 16 14 14 14 12 9 7 6 5 5 5 4 2 1 1 1 1 3 5 6 7 7 7 8 8 9 8
26 24 22 21 21 21 20 20 20 22 24 25 23 22 26 30 31 31 33 35 37 39 41 41 40 38 37 34 32 31 32 31 30 29 30 30 27 24 21 20 19 19 20 18 16 16 17 17 15 14 13 12 10 9 6 4 4 4 3 2 1 0 1 2 3 5 6 7 7 8 9 9 8 8
25 22 19 19 19 20 20 21 22 24 24 25 26 26 26 27 29 31 33 35 39 41 41 39 38 37 36 35 33 33 33 32 30 29 29 27 24 23 21 21 20 20 20 19 17 16 16 16 15 13 11 10 9 7 6 5 5 4 2 1 1 1 2 3 4 6 6 7 7 8 9 9 9 9
20 19 18 18 19 19 20 21 24 26 25 26 30 32 29 27 29 33 36 37 40 41 40 37 35 35 34 33 33 34 35 34 31 28 26 24 23 22 21 21 22 21 19 18 16 16 15 15 13 12 11 9 6 4 4 5 4 3 2 2 2 2 3 4 5 6 6 6 6 8 9 9 10 11
13 14 16 17 19 20 20 20 22 26 26 26 31 35 34 33 33 34 36 36 37 39 39 36 34 34 34 34 34 35 35 35 32 27 23 22 22 22 22 22 22 20 18 16 15 14 13 12 11 10 9 7 6 5 6 5 3 3 3 2 2 3 3 5 6 5 5 6 6 7 8 10 11 12
6 9 13 15 17 18 18 19 23 26 27 28 32 34 34 34 34 34 35 35 35 35 35 34 33 33 34 35 36 35 34 34 32 28 25 22 21 22 22 21 20 19 17 16 14 13 11 9 8 6 5 3 2 5 6 6 5 4 4 3 3 3 4 5 5 5 5 6 7 8 9 10 11 12
5 6 9 11 15 17 18 20 25 27 28 31 34 35 34 34 34 34 34 34 34 34 33 33 33 32 31 33 35 36 36 36 33 28 24 22 21 22 22 21 19 18 17 16 14 12 10 9 7 5 5 5 6 7 6 7 8 5 3 4 5 4 4 4 5 5 6 6 8 9 10 10 11 12
10 9 10 12 15 17 19 21 24 26 28 30 32 34 37 37 35 34 34 35 34 34 35 35 33 30 28 30 34 37 37 35 31 28 25 22 22 22 22 21 19 18 17 16 14 12 10 9 8 8 9 9 9 9 8 8 8 6 2 1 4 7 6 4 4 5 6 7 9 10 10 11 13 14
14 14 13 14 16 18 19 21 23 25 28 30 31 32 34 35 33 33 35 36 36 35 36 35 32 29 27 29 34 38 37 33 30 28 26 24 23 23 22 20 19 18 17 16 14 12 11 11 11 11 12 12 10 7 6 5 6 6 5 3 2 7 8 6 6 5 5 6 8 9 10 12 13 14
15 16 16 16 17 19 20 21 23 25 28 30 33 33 33 33 33 34 35 36 35 35 35 34 32 30 28 28 32 36 36 33 30 28 27 26 25 23 20 18 18 17 17 15 15 14 15 15 14 13 12 9 5 3 3 4 4 4 4 3 1 5 7 7 7 7 6 6 6 6 9 12 13 12
16 17 20 20 20 21 21 22 24 26 28 30 33 36 37 38 38 36 36 35 33 34 35 33 32 31 29 28 31 35 36 34 32 30 28 26 23 21 19 18 19 19 18 17 16 16 15 13 11 9 8 5 2 3 4 4 3 3 3 3 2 4 6 7 8 8 7 7 7 5 7 10 11 11
17 19 22 23 23 23 24 25 26 27 29 31 34 37 40 41 39 36 34 33 32 32 33 33 33 32 30 29 32 34 35 35 33 29 26 23 22 21 22 22 21 20 18 17 16 14 12 10 8 7 7 6 5 6 5 4 3 4 4 4 4 4 5 5 7 9 10 9 8 6 8 11 12 12
19 21 24 25 25 26 26 26 26 27 29 32 34 34 35 34 34 33 33 31 30 32 33 33 33 32 30 30 32 34 33 32 30 27 25 24 23 23 22 22 21 19 17 16 15 14 12 10 9 9 9 7 7 7 6 5 5 5 4 3 3 4 4 4 6 8 9 7 5 6 11 13 12 13
Wind_Direction
240 236 233 231 230 229 228 229 231 232 231 231 231 228 228 232 250 273 253 242 228 202 198 200 194 187 179 175 182 186 192 201 197 196 198 192 188 190 190 190 190 190 191 191 190 188 187 188 190 192 198 205 211 218 222 222 225 232 238 246 261 280 302 315 323 333 343 348 351 356 358 358 357 353
246 240 236 232 229 228 227 228 230 230 230 230 229 228 228 226 230 253 259 252 244 217 196 190 183 177 173 175 184 186 191 201 192 185 193 192 188 189 190 190 191 191 192 192 190 190 190 191 194 198 204 209 211 214 219 220 225 232 238 249 262 281 302 312 320 330 339 346 347 350 354 354 353 350
248 245 240 234 230 229 228 228 230 229 229 229 227 227 228 225 226 239 260 269 249 237 202 182 185 183 180 180 178 179 192 197 182 177 186 188 187 188 189 191 192 192 193 193 191 192 193 195 199 204 207 207 206 209 215 218 223 232 239 249 264 285 301 306 317 325 331 339 341 344 349 349 348 346
249 247 243 238 234 231 229 228 228 227 228 228 227 226 226 226 224 231 248 274 268 263 235 191 191 187 182 187 180 173 185 185 176 181 186 186 186 187 188 190 193 195 194 194 194 194 196 199 204 206 203 201 203 205 210 216 223 232 240 250 264 284 298 304 313 318 323 331 336 341 344 345 345 342
254 250 245 242 238 233 230 229 227 226 228 228 226 224 224 227 227 225 234 243 263 274 252 196 194 187 175 181 185 178 175 170 169 185 188 185 186 187 187 189 192 195 195 195 195 196 198 201 203 202 198 196 199 203 208 215 224 232 239 250 265 279 293 303 310 315 321 327 333 337 339 341 342 339
255 254 249 244 241 238 235 233 231 228 228 226 223 221 220 225 229 225 228 233 242 267 255 185 173 180 169 173 188 188 177 166 166 181 184 182 184 186 187 188 189 194 196 197 196 197 198 198 198 196 194 194 196 202 209 214 224 234 241 250 261 273 287 297 307 314 318 324 329 332 335 339 338 337
256 256 254 248 243 241 239 236 234 232 232 231 227 225 221 224 229 226 226 229 231 255 254 173 154 170 173 173 180 179 172 165 165 171 174 174 178 183 186 188 190 192 195 196 195 195 195 194 194 193 192 194 195 201 210 216 226 235 242 251 259 269 283 293 305 313 317 320 324 327 332 336 336 334
260 257 256 254 247 242 242 240 236 233 232 230 228 228 224 224 227 226 224 224 223 238 243 184 164 172 174 173 172 168 164 164 164 163 163 166 174 181 185 188 189 188 190 193 191 192 192 191 192 194 194 196 198 203 211 219 228 236 243 250 257 268 281 292 303 311 313 316 321 325 330 333 333 331
260 258 257 257 253 247 244 242 239 235 231 228 226 226 226 226 225 222 221 218 216 230 236 197 174 173 173 171 169 166 161 158 158 158 157 159 165 172 178 185 187 183 183 187 188 189 191 192 192 195 197 199 202 207 214 221 229 236 242 249 257 267 279 292 302 306 309 312 318 324 328 329 329 328
254 255 255 255 254 252 250 246 241 238 235 232 230 228 227 229 226 219 217 213 212 225 227 196 179 177 175 170 167 167 162 156 155 154 151 151 157 165 173 180 183 181 180 184 186 187 189 192 195 198 201 204 207 212 217 223 230 237 244 249 257 266 275 288 298 302 306 310 316 321 324 326 326 325
251 249 250 250 251 254 254 249 244 242 239 235 233 229 226 228 226 220 215 210 210 220 221 203 192 184 174 167 165 168 166 160 156 154 150 149 158 171 178 179 177 180 183 185 187 189 191 193 197 201 205 208 212 216 219 225 232 239 245 249 256 263 273 287 295 298 302 306 312 317 320 322 324 324
253 249 247 246 246 249 251 250 248 245 242 238 235 232 228 226 225 221 216 210 207 214 221 212 195 178 168 165 164 167 167 163 162 164 162 158 161 171 180 181 179 180 184 184 185 190 193 194 198 203 207 210 214 218 223 228 234 239 244 249 253 260 270 283 291 295 298 302 307 313 317 321 322 321
252 251 248 245 244 244 247 250 251 250 247 243 239 234 227 224 225 222 217 209 204 210 220 211 186 173 173 171 166 167 172 171 170 172 168 161 159 162 166 175 182 183 183 183 185 191 194 196 199 203 207 211 214 220 224 226 233 240 244 247 251 258 270 282 287 290 293 297 302 309 315 319 320 319
252 251 249 247 245 244 245 247 250 252 252 250 248 242 232 224 223 223 221 211 203 207 212 199 181 175 179 176 171 172 177 176 172 171 168 160 157 157 155 164 181 187 186 182 183 192 197 198 201 205 211 216 217 221 227 229 234 239 238 241 251 260 271 279 282 285 288 293 298 308 315 318 318 318
251 251 250 250 248 246 244 244 246 250 252 252 253 250 243 232 225 223 222 213 205 205 203 195 187 179 177 178 174 173 175 175 174 174 171 164 159 161 161 163 179 190 189 183 180 189 196 199 203 206 214 220 220 222 227 229 234 235 231 242 261 268 273 276 277 280 284 289 297 306 315 317 316 316
250 249 249 250 248 246 243 242 243 245 248 250 252 252 248 241 232 227 222 213 206 204 201 197 193 184 179 176 171 172 174 174 176 177 174 168 166 169 172 172 179 187 187 182 177 184 191 194 200 204 210 219 222 220 220 227 235 237 238 253 268 269 269 269 271 276 280 287 299 308 314 316 315 316
251 250 249 248 248 246 243 241 240 242 244 246 247 249 248 241 233 231 231 225 216 210 207 204 196 186 180 176 176 181 181 176 174 176 177 175 173 175 181 181 179 179 179 178 175 178 184 188 194 201 202 209 215 210 211 224 234 237 243 256 265 263 262 262 266 272 279 288 301 309 314 316 316 317
251 250 249 248 247 246 243 240 239 239 241 242 242 242 242 238 233 231 234 233 223 214 209 206 199 192 186 184 185 188 186 181 177 179 182 182 177 177 184 183 174 174 177 176 171 169 180 187 193 201 198 201 209 208 211 225 233 236 245 254 257 255 253 256 262 270 279 292 303 311 316 317 317 318
249 248 248 249 248 247 244 241 238 238 239 238 237 235 232 231 230 229 231 232 227 221 216 208 200 196 195 193 192 191 189 185 182 183 185 181 174 170 166 158 158 168 174 176 172 166 178 187 193 201 199 196 201 205 210 224 233 238 245 248 247 244 246 252 260 269 281 295 305 312 316 317 319 320
248 246 246 247 248 248 247 245 242 240 239 239 239 233 224 223 224 224 227 230 228 226 224 217 207 200 197 198 198 194 188 184 183 180 175 171 167 158 144 139 151 165 175 181 180 172 173 181 189 199 198 191 191 201 211 224 235 240 241 240 237 236 242 248 257 272 283 294 305 312 317 321 321 323
247 245 243 244 246 247 246 246 244 242 240 239 240 237 228 219 217 216 217 220 220 222 223 218 210 205 201 201 202 196 188 186 186 176 164 163 165 157 145 146 161 170 179 183 183 181 173 174 185 194 187 183 189 201 212 222 233 237 235 232 229 230 237 246 260 275 277 287 306 317 326 328 327 331
246 245 242 242 243 245 244 244 244 244 244 240 238 240 234 215 203 201 202 203 206 209 210 205 201 202 203 203 201 195 190 191 192 185 176 173 171 164 157 157 158 166 183 184 182 185 175 172 183 187 173 178 196 197 198 209 220 226 223 221 223 227 236 253 271 277 275 288 312 324 332 335 337 340
246 244 242 240 241 243 244 244 242 243 248 245 238 237 231 204 190 194 194 193 192 191 191 190 188 190 192 193 193 191 190 192 192 192 188 181 175 169 162 157 153 157 191 188 181 179 172 171 182 185 167 173 201 195 187 196 209 222 219 215 223 230 240 265 282 283 282 298 316 320 324 334 341 343
245 243 242 240 240 240 242 244 242 240 246 250 244 236 223 197 183 188 189 189 190 186 184 184 182 178 178 181 181 181 182 183 185 190 192 186 181 176 169 168 168 165 186 186 180 173 167 170 178 186 178 175 192 187 182 186 197 211 213 215 228 235 239 262 279 277 279 297 311 308 310 329 337 336
243 241 240 239 239 238 240 243 243 240 241 248 251 242 224 200 187 185 183 184 186 184 179 176 171 167 168 170 171 171 173 177 181 186 189 185 183 180 177 178 177 160 172 183 179 168 163 171 177 184 188 194 185 173 178 193 196 198 204 214 227 231 232 252 268 270 277 295 300 287 293 323 328 321
240 240 240 240 240 238 237 240 242 241 239 243 251 247 226 202 192 187 182 180 178 176 173 168 162 160 160 161 164 166 169 174 179 182 181 180 181 184 183 183 180 170 170 179 176 166 164 178 179 178 185 198 183 162 171 195 196 192 202 212 217 218 222 241 257 269 280 292 291 283 299 318 318 307
239 239 239 240 241 238 235 235 237 238 237 239 245 241 217 195 188 183 177 175 172 168 166 162 157 156 157 157 159 162 163 168 172 170 171 175 178 178 178 182 186 181 174 174 173 170 175 181 178 176 181 189 181 169 178 190 185 186 200 208 209 211 216 229 253 274 284 287 290 293 304 314 312 305
237 239 238 237 239 239 236 233 232 231 232 233 234 226 203 186 180 177 172 170 167 162 159 157 154 153 154 153 154 157 156 157 158 158 160 164 163 162 164 171 178 174 166 166 169 171 177 175 168 168 177 182 183 185 189 185 176 180 191 194 196 202 204 221 261 281 287 291 298 300 304 311 312 308
233 236 238 239 239 237 234 231 226 224 223 221 217 207 190 179 175 173 170 166 163 158 155 155 152 150 150 150 150 151 150 149 149 149 149 146 142 141 143 146 152 157 158 160 162 163 168 165 156 148 154 168 184 188 183 175 168 166 173 181 192 203 201 223 269 294 300 300 305 308 307 308 309 308
230 233 239 245 244 234 229 225 219 214 210 206 201 194 183 174 172 172 169 164 160 156 153 154 151 148 149 148 146 146 146 145 145 145 142 136 132 133 133 131 135 143 149 152 152 150 152 151 147 145 143 147 163 168 167 173 164 154 160 177 197 215 199 222 283 304 309 310 314 312 307 306 307 308
228 233 240 244 238 224 216 213 207 200 194 189 185 182 177 173 173 174 172 168 164 158 153 151 149 147 147 146 145 147 147 144 142 144 141 135 132 134 135 132 131 133 135 138 139 139 141 141 138 140 147 149 144 139 147 172 175 164 163 163 164 215 226 267 308 314 321 322 318 310 307 311 311 310
222 228 229 222 208 194 186 181 179 178 175 172 170 168 169 170 171 171 169 166 162 157 152 147 145 145 146 146 147 148 146 142 140 141 140 135 134 137 138 135 134 134 131 131 133 134 137 137 132 131 139 140 134 136 150 169 176 169 160 152 154 224 264 296 312 320 330 329 319 312 314 316 313 313
203 202 195 182 171 167 162 157 155 155 155 156 157 158 161 162 161 160 158 154 151 151 149 146 145 146 146 146 147 146 141 138 139 141 140 137 138 142 141 138 139 139 133 130 133 135 137 137 136 138 139 132 128 140 158 170 174 166 154 147 167 224 287 330 319 323 329 325 315 313 318 316 313 317
178 174 168 162 158 156 154 151 149 148 147 147 146 147 151 154 154 154 154 151 150 151 149 147 147 148 146 147 148 144 138 137 140 141 139 138 141 147 146 140 139 138 133 130 132 134 136 136 135 135 134 129 130 138 143 138 138 142 144 144 138 318 327 334 330 325 321 314 310 313 315 313 314 323
164 161 158 155 156 156 156 155 153 150 149 147 143 141 144 148 150 150 149 149 150 150 148 147 147 147 147 149 148 143 137 136 138 136 135 138 146 151 146 139 137 137 135 135 136 137 138 137 134 131 132 132 132 135 136 123 99 86 89 90 44 1 334 336 332 320 310 308 311 313 313 315 320 327
157 158 157 156 157 158 158 157 154 152 152 150 146 143 142 143 147 150 149 150 150 148 146 146 146 146 148 148 145 140 136 135 133 132 135 143 148 146 140 136 136 136 135 136 139 142 144 146 147 145 147 152 152 139 136 138 120 90 75 52 23 357 336 334 324 310 306 310 314 315 316 318 321 324
152 157 156 157 160 160 158 156 153 153 153 153 149 147 145 145 148 149 149 149 148 146 146 146 145 146 148 146 141 137 134 130 128 130 136 142 143 139 136 135 135 134 134 133 136 140 144 150 157 160 165 179 182 148 127 125 108 88 91 69 17 349 338 326 311 305 312 316 318 322 321 318 317 319
143 155 156 159 162 161 158 156 152 150 151 150 148 145 143 144 145 145 145 145 145 144 144 144 144 147 148 145 139 135 130 126 125 129 137 142 142 139 136 134 132 131 130 129 130 133 135 140 153 168 187 206 171 127 132 145 136 103 85 75 44 359 337 323 312 317 325 322 324 328 322 315 316 318
97 136 151 159 161 157 154 152 150 147 146 146 144 141 139 139 140 141 142 142 142 142 141 140 143 148 149 144 138 133 127 126 128 134 140 145 144 139 134 131 129 128 127 125 124 123 121 117 112 97 71 62 70 76 92 123 132 124 76 51 48 24 354 337 328 328 330 330 332 330 324 321 323 323
84 102 120 135 141 142 142 143 142 141 140 140 141 139 138 138 138 139 139 139 138 138 137 137 142 147 146 140 135 129 125 127 131 136 140 141 139 136 133 130 129 128 126 123 119 112 107 106 108 103 91 87 90 86 84 99 121 139 165 56 31 19 11 9 350 331 328 334 335 333 334 337 335 332
77 87 101 115 123 127 132 134 134 134 135 136 136 136 135 135 136 137 137 136 136 136 135 137 140 140 137 135 132 126 124 126 129 133 136 136 134 133 131 128 127 126 123 117 110 103 105 113 120 119 109 100 96 98 107 126 137 142 151 158 5 1 9 26 28 5 344 339 337 336 341 343 338 334
74 82 91 102 111 116 122 126 127 129 132 132 133 134 133 132 133 133 133 133 134 134 134 134 134 131 130 130 129 125 124 125 127 130 134 133 130 129 127 124 123 122 118 113 110 112 117 116 111 105 103 100 95 96 118 127 113 101 116 140 6 347 350 3 15 15 3 345 333 333 342 345 342 338
72 80 89 98 104 108 113 118 122 126 129 130 132 132 131 130 129 129 129 130 131 131 130 128 127 126 127 128 127 125 125 126 128 130 132 131 128 126 122 120 120 118 114 112 114 118 119 115 107 103 105 108 102 93 99 105 98 84 83 77 34 341 323 326 340 351 344 318 294 297 331 343 341 334
73 80 88 95 99 103 108 114 117 121 124 125 126 128 128 128 127 127 128 130 131 131 129 127 126 126 126 126 125 123 124 127 129 129 129 127 124 120 118 118 119 117 116 117 119 120 119 117 115 114 108 98 89 91 97 103 102 90 73 48 11 333 316 320 324 324 315 295 279 294 331 337 335 333
79 85 89 93 97 102 108 112 115 118 120 121 122 124 125 125 125 126 127 130 131 130 128 126 126 125 125 124 122 121 124 126 126 125 123 121 119 119 120 121 120 118 119 121 120 119 119 118 113 109 106 103 103 104 101 98 95 88 76 52 7 339 340 341 324 318 317 307 302 329 339 335 334 339